| time (UTC) | temp F | wind direction | speed knots | gust knots | rain 1hr in | rain 24hr in | rain mn in | humidity % | barometer mb |
| 20260510232348 | 46 | 346 | 0.0 | 1.7 | 0.00 | 0.00 | 0.00 | 65 | 1008.0 |
| 20260510231449 | 46 | 1 | 0.0 | 1.7 | 0.00 | 0.00 | 0.00 | 64 | 1008.2 |
| 20260510230549 | 46 | 1 | 0.0 | 1.7 | 0.00 | 0.00 | 0.00 | 62 | 1008.5 |
| 20260510224749 | 46 | 1 | 0.0 | 1.7 | 0.00 | 0.00 | 0.00 | 60 | 1008.5 |
| 20260510223848 | 46 | 1 | 0.0 | 1.7 | 0.00 | 0.00 | 0.00 | 60 | 1008.8 |
| 20260510222949 | 46 | 1 | 0.0 | 1.7 | 0.00 | 0.00 | 0.00 | 59 | 1008.9 |
| 20260510222048 | 46 | 1 | 0.0 | 1.7 | 0.00 | 0.00 | 0.00 | 58 | 1008.9 |
| 20260510221148 | 47 | 179 | 0.0 | 1.7 | 0.00 | 0.00 | 0.00 | 58 | 1008.9 |
| 20260510220248 | 47 | 181 | 0.0 | 1.7 | 0.00 | 0.00 | 0.00 | 56 | 1008.9 |
| 20260510215349 | 47 | 181 | 0.0 | 1.7 | 0.00 | 0.00 | 0.00 | 56 | 1009.1 |
| 20260510214448 | 48 | 181 | 0.0 | 1.7 | 0.00 | 0.00 | 0.00 | 56 | 1009.0 |
| 20260510213549 | 49 | 317 | 0.0 | 1.7 | 0.00 | 0.00 | 0.00 | 55 | 1009.2 |
| 20260510212648 | 49 | 206 | 0.9 | 1.7 | 0.00 | 0.00 | 0.00 | 55 | 1009.2 |
| 20260510211748 | 49 | 181 | 0.9 | 1.7 | 0.00 | 0.00 | 0.00 | 54 | 1009.3 |
| 20260510210848 | 49 | 181 | 0.0 | 1.7 | 0.00 | 0.00 | 0.00 | 53 | 1009.5 |
| 20260510205949 | 49 | 181 | 0.9 | 1.7 | 0.00 | 0.00 | 0.00 | 53 | 1009.7 |
| 20260510205048 | 49 | 216 | 0.0 | 1.7 | 0.00 | 0.00 | 0.00 | 52 | 1009.7 |
| 20260510204148 | 49 | 328 | 0.0 | 1.7 | 0.00 | 0.00 | 0.00 | 51 | 1009.8 |
| 20260510203248 | 50 | 356 | 0.0 | 1.7 | 0.00 | 0.00 | 0.00 | 48 | 1009.7 |
| 20260510202349 | 50 | 335 | 0.0 | 1.7 | 0.00 | 0.00 | 0.00 | 48 | 1009.7 |
| 20260510201448 | 50 | 1 | 0.9 | 1.7 | 0.00 | 0.00 | 0.00 | 44 | 1009.9 |
| 20260510200549 | 52 | 1 | 0.9 | 1.7 | 0.00 | 0.00 | 0.00 | 39 | 1010.1 |
| 20260510195648 | 52 | 1 | 0.9 | 1.7 | 0.00 | 0.00 | 0.00 | 39 | 1010.0 |
| 20260510194749 | 53 | 350 | 0.0 | 1.7 | 0.00 | 0.00 | 0.00 | 37 | 1010.2 |
| 20260510193848 | 53 | 1 | 0.0 | 1.7 | 0.00 | 0.00 | 0.00 | 36 | 1010.2 |
| 20260510192949 | 53 | 358 | 0.9 | 1.7 | 0.00 | 0.00 | 0.00 | 35 | 1010.3 |
| 20260510192048 | 53 | 322 | 0.9 | 1.7 | 0.00 | 0.00 | 0.00 | 33 | 1010.2 |
| 20260510191148 | 54 | 298 | 0.9 | 1.7 | 0.00 | 0.00 | 0.00 | 30 | 1010.4 |
| 20260510190248 | 56 | 221 | 0.9 | 1.7 | 0.00 | 0.00 | 0.00 | 27 | 1010.1 |
| 20260510185348 | 57 | 181 | 0.0 | 1.7 | 0.00 | 0.00 | 0.00 | 26 | 1010.2 |
| 20260510184448 | 57 | 0 | 0.0 | 0.0 | 0.00 | 0.00 | 0.00 | 24 | 1010.2 |
| 20260510183548 | 58 | 181 | 0.0 | 0.9 | 0.00 | 0.00 | 0.00 | 22 | 1010.2 |
| 20260510182648 | 59 | 187 | 0.0 | 3.5 | 0.00 | 0.00 | 0.00 | 22 | 1010.2 |
| 20260510181748 | 60 | 94 | 0.9 | 3.5 | 0.00 | 0.00 | 0.00 | 21 | 1010.2 |
| 20260510180848 | 60 | 90 | 0.9 | 2.6 | 0.00 | 0.00 | 0.00 | 19 | 1010.2 |
| 20260510175948 | 61 | 72 | 0.0 | 5.2 | 0.00 | 0.00 | 0.00 | 18 | 1010.3 |
| 20260510175048 | 61 | 342 | 0.9 | 3.5 | 0.00 | 0.00 | 0.00 | 17 | 1010.3 |
| 20260510174149 | 62 | 90 | 0.0 | 1.7 | 0.00 | 0.00 | 0.00 | 15 | 1010.3 |
| 20260510173248 | 62 | 90 | 0.0 | 1.7 | 0.00 | 0.00 | 0.00 | 14 | 1010.2 |
| 20260510172348 | 63 | 90 | 0.0 | 2.6 | 0.00 | 0.00 | 0.00 | 13 | 1010.2 |
| 20260510170548 | 65 | 130 | 0.9 | 3.5 | 0.00 | 0.00 | 0.00 | 10 | 1010.4 |
| 20260510165648 | 66 | 4 | 1.7 | 3.5 | 0.00 | 0.00 | 0.00 | 10 | 1010.4 |
| 20260510164748 | 67 | 80 | 0.9 | 7.0 | 0.00 | 0.00 | 0.00 | 10 | 1010.4 |
| 20260510163848 | 69 | 245 | 3.5 | 7.0 | 0.00 | 0.00 | 0.00 | 10 | 1010.4 |
| 20260510161148 | 72 | 136 | 1.7 | 4.3 | 0.00 | 0.00 | 0.00 | 10 | 1010.7 |
| 20260510160248 | 71 | 155 | 1.7 | 6.1 | 0.00 | 0.00 | 0.00 | 10 | 1011.0 |
| 20260510155348 | 71 | 132 | 0.9 | 3.5 | 0.00 | 0.00 | 0.00 | 10 | 1011.2 |
| 20260510154448 | 70 | 302 | 1.7 | 3.5 | 0.00 | 0.00 | 0.00 | 10 | 1011.2 |
| 20260510151748 | 75 | 86 | 1.7 | 4.3 | 0.00 | 0.00 | 0.00 | 10 | 1011.6 |
| 20260510150848 | 74 | 1 | 1.7 | 7.0 | 0.00 | 0.00 | 0.00 | 10 | 1011.8 |
| 20260510145948 | 76 | 58 | 1.7 | 7.0 | 0.00 | 0.00 | 0.00 | 10 | 1011.9 |
| 20260510145048 | 75 | 103 | 1.7 | 3.5 | 0.00 | 0.00 | 0.00 | 10 | 1012.2 |
| 20260510144148 | 73 | 90 | 0.0 | 2.6 | 0.00 | 0.00 | 0.00 | 10 | 1012.3 |
| 20260510143248 | 72 | 90 | 0.9 | 2.6 | 0.00 | 0.00 | 0.00 | 10 | 1012.4 |
| 20260510142350 | 73 | 49 | 1.7 | 5.2 | 0.00 | 0.00 | 0.00 | 10 | 1012.5 |
| 20260510141452 | 73 | 320 | 1.7 | 3.5 | 0.00 | 0.00 | 0.00 | 10 | 1012.5 |
| 20260510140548 | 71 | 314 | 1.7 | 3.5 | 0.00 | 0.00 | 0.00 | 10 | 1012.7 |
| 20260510134748 | 71 | 62 | 1.7 | 4.3 | 0.00 | 0.00 | 0.00 | 10 | 1012.9 |
| 20260510133852 | 71 | 133 | 0.0 | 4.3 | 0.00 | 0.00 | 0.00 | 10 | 1012.8 |
| 20260510132048 | 72 | 96 | 0.9 | 3.5 | 0.00 | 0.00 | 0.00 | 10 | 1013.0 |
| 20260510131148 | 72 | 106 | 1.7 | 3.5 | 0.00 | 0.00 | 0.00 | 10 | 1013.1 |
| 20260510130251 | 71 | 105 | 1.7 | 4.3 | 0.00 | 0.00 | 0.00 | 10 | 1013.2 |
| 20260510125348 | 71 | 110 | 1.7 | 5.2 | 0.00 | 0.00 | 0.00 | 10 | 1013.4 |
| 20260510124450 | 70 | 314 | 1.7 | 4.3 | 0.00 | 0.00 | 0.00 | 10 | 1013.2 |
| 20260510123551 | 71 | 86 | 1.7 | 5.2 | 0.00 | 0.00 | 0.00 | 10 | 1013.5 |
| 20260510122648 | 72 | 69 | 1.7 | 6.1 | 0.00 | 0.00 | 0.00 | 10 | 1013.8 |
| 20260510121752 | 71 | 6 | 1.7 | 4.3 | 0.00 | 0.00 | 0.00 | 10 | 1013.9 |
| 20260510120848 | 71 | 77 | 1.7 | 7.0 | 0.00 | 0.00 | 0.00 | 10 | 1014.0 |
| 20260510115948 | 71 | 40 | 2.6 | 7.0 | 0.00 | 0.00 | 0.00 | 10 | 1013.8 |
| 20260510115048 | 71 | 40 | 2.6 | 7.0 | 0.00 | 0.00 | 0.00 | 10 | 1013.9 |
| 20260510114148 | 71 | 319 | 1.7 | 5.2 | 0.00 | 0.00 | 0.00 | 10 | 1014.1 |
| 20260510113248 | 71 | 250 | 0.9 | 4.3 | 0.00 | 0.00 | 0.00 | 10 | 1014.4 |
| 20260510112348 | 71 | 336 | 1.7 | 6.1 | 0.00 | 0.00 | 0.00 | 10 | 1014.5 |
| 20260510111448 | 70 | 323 | 1.7 | 5.2 | 0.00 | 0.00 | 0.00 | 10 | 1014.7 |
| 20260510110548 | 70 | 154 | 1.7 | 6.1 | 0.00 | 0.00 | 0.00 | 10 | 1014.9 |
| 20260510105648 | 70 | 51 | 1.7 | 7.0 | 0.00 | 0.00 | 0.00 | 10 | 1014.8 |
| 20260510104748 | 69 | 104 | 1.7 | 4.3 | 0.00 | 0.00 | 0.00 | 10 | 1015.0 |
| 20260510103848 | 68 | 104 | 1.7 | 7.0 | 0.00 | 0.00 | 0.00 | 10 | 1015.2 |
| 20260510102948 | 69 | 125 | 1.7 | 6.1 | 0.00 | 0.00 | 0.00 | 12 | 1015.3 |
| 20260510102048 | 69 | 126 | 2.6 | 7.0 | 0.00 | 0.00 | 0.00 | 12 | 1015.4 |
| 20260510101148 | 68 | 114 | 1.7 | 4.3 | 0.00 | 0.00 | 0.00 | 13 | 1015.3 |
| 20260510100248 | 69 | 99 | 1.7 | 3.5 | 0.00 | 0.00 | 0.00 | 12 | 1015.4 |
| 20260510095348 | 69 | 133 | 1.7 | 5.2 | 0.00 | 0.00 | 0.00 | 13 | 1015.7 |
| 20260510094448 | 68 | 140 | 0.9 | 4.3 | 0.00 | 0.00 | 0.00 | 14 | 1015.5 |
| 20260510093548 | 67 | 111 | 1.7 | 4.3 | 0.00 | 0.00 | 0.00 | 16 | 1015.7 |
| 20260510092648 | 67 | 117 | 0.9 | 7.0 | 0.00 | 0.00 | 0.00 | 16 | 1015.7 |
| 20260510091748 | 67 | 149 | 3.5 | 7.0 | 0.00 | 0.00 | 0.00 | 15 | 1015.8 |
| 20260510085948 | 66 | 95 | 1.7 | 4.3 | 0.00 | 0.00 | 0.00 | 18 | 1016.1 |
| 20260510085048 | 67 | 64 | 0.9 | 3.5 | 0.00 | 0.00 | 0.00 | 15 | 1016.1 |
| 20260510084148 | 66 | 174 | 0.0 | 7.0 | 0.00 | 0.00 | 0.00 | 17 | 1016.4 |
| 20260510083248 | 65 | 129 | 0.9 | 7.0 | 0.00 | 0.00 | 0.00 | 17 | 1016.3 |
| 20260510082348 | 66 | 228 | 0.9 | 4.3 | 0.00 | 0.00 | 0.00 | 15 | 1016.3 |
| 20260510081448 | 65 | 199 | 1.7 | 4.3 | 0.00 | 0.00 | 0.00 | 17 | 1016.4 |
| 20260510080548 | 65 | 325 | 1.7 | 3.5 | 0.00 | 0.00 | 0.00 | 17 | 1016.5 |
| 20260510075648 | 65 | 321 | 0.9 | 2.6 | 0.00 | 0.00 | 0.00 | 17 | 1016.6 |
| 20260510074748 | 64 | 181 | 1.7 | 3.5 | 0.00 | 0.00 | 0.00 | 18 | 1016.7 |
| 20260510073848 | 63 | 263 | 1.7 | 4.3 | 0.00 | 0.00 | 0.00 | 18 | 1016.7 |
| 20260510072948 | 63 | 7 | 0.9 | 4.3 | 0.00 | 0.00 | 0.00 | 18 | 1016.7 |
| 20260510072048 | 62 | 253 | 0.9 | 4.3 | 0.00 | 0.00 | 0.00 | 20 | 1016.8 |
| 20260510071148 | 62 | 297 | 0.9 | 3.5 | 0.00 | 0.00 | 0.00 | 23 | 1017.0 |
| 20260510070248 | 60 | 310 | 0.0 | 5.2 | 0.00 | 0.00 | 0.00 | 24 | 1017.0 |
| 20260510065348 | 60 | 146 | 0.9 | 4.3 | 0.00 | 0.00 | 0.00 | 23 | 1017.0 |
| 20260510064448 | 61 | 154 | 1.7 | 4.3 | 0.00 | 0.00 | 0.00 | 22 | 1017.0 |
| 20260510061748 | 60 | 330 | 0.9 | 3.5 | 0.00 | 0.00 | 0.00 | 27 | 1017.2 |
| 20260510060848 | 61 | 314 | 0.0 | 1.7 | 0.00 | 0.00 | 0.00 | 28 | 1017.6 |
| 20260510055948 | 59 | 80 | 0.0 | 2.6 | 0.00 | 0.00 | 0.00 | 36 | 1017.4 |
| 20260510055048 | 58 | 120 | 1.7 | 3.5 | 0.00 | 0.00 | 0.00 | 35 | 1017.5 |
| 20260510053248 | 58 | 1 | 1.7 | 2.6 | 0.00 | 0.00 | 0.00 | 38 | 1017.7 |
| 20260510052347 | 58 | 1 | 0.9 | 1.7 | 0.00 | 0.00 | 0.00 | 46 | 1017.8 |
| 20260510051447 | 57 | 353 | 0.0 | 1.7 | 0.00 | 0.00 | 0.00 | 63 | 1017.9 |
| 20260510050548 | 56 | 314 | 0.9 | 1.7 | 0.00 | 0.00 | 0.00 | 82 | 1017.8 |
| 20260510045648 | 54 | 0 | 0.0 | 0.0 | 0.00 | 0.00 | 0.00 | 99 | 1017.8 |
| 20260510044748 | 51 | 314 | 0.0 | 0.9 | 0.00 | 0.00 | 0.00 | 99 | 1017.8 |
| 20260510043848 | 48 | 314 | 0.0 | 0.9 | 0.00 | 0.00 | 0.00 | 99 | 1017.7 |
| 20260510042947 | 46 | 314 | 0.0 | 0.9 | 0.00 | 0.00 | 0.00 | 99 | 1017.9 |
| 20260510042047 | 44 | 314 | 0.0 | 0.9 | 0.00 | 0.00 | 0.00 | 99 | 1017.8 |
| 20260510041147 | 42 | 314 | 0.0 | 0.9 | 0.00 | 0.00 | 0.00 | 99 | 1017.7 |
| 20260510040247 | 39 | 0 | 0.0 | 0.0 | 0.00 | 0.00 | 0.00 | 97 | 1017.7 |
| 20260510034447 | 36 | 1 | 0.0 | 0.9 | 0.00 | 0.00 | 0.00 | 94 | 1017.8 |
| 20260510033548 | 35 | 1 | 0.0 | 0.9 | 0.00 | 0.00 | 0.00 | 93 | 1017.8 |
| 20260510032647 | 35 | 1 | 0.0 | 0.9 | 0.00 | 0.00 | 0.00 | 93 | 1017.8 |
| 20260510031747 | 36 | 0 | 0.0 | 0.0 | 0.00 | 0.00 | 0.00 | 92 | 1017.9 |
| 20260510030848 | 36 | 1 | 0.0 | 0.9 | 0.00 | 0.00 | 0.00 | 92 | 1017.9 |
| 20260510025948 | 36 | 1 | 0.0 | 0.9 | 0.00 | 0.00 | 0.00 | 92 | 1018.0 |
| 20260510025047 | 36 | 1 | 0.0 | 0.9 | 0.00 | 0.00 | 0.00 | 91 | 1018.0 |
| 20260510023247 | 36 | 1 | 0.0 | 0.9 | 0.00 | 0.00 | 0.00 | 91 | 1018.1 |
| 20260510021447 | 36 | 1 | 0.0 | 0.9 | 0.00 | 0.00 | 0.00 | 90 | 1018.0 |
| 20260510015648 | 36 | 0 | 0.0 | 0.0 | 0.00 | 0.00 | 0.00 | 89 | 1017.9 |
| 20260510014747 | 37 | 0 | 0.0 | 0.0 | 0.00 | 0.00 | 0.00 | 89 | 1018.2 |
| 20260510013848 | 37 | 331 | 0.0 | 0.9 | 0.00 | 0.00 | 0.00 | 89 | 1018.2 |
| 20260510012047 | 37 | 1 | 0.0 | 0.9 | 0.00 | 0.00 | 0.00 | 88 | 1018.3 |
| 20260510011147 | 37 | 314 | 0.0 | 0.9 | 0.00 | 0.00 | 0.00 | 88 | 1018.5 |
| 20260510010247 | 37 | 335 | 0.0 | 1.7 | 0.00 | 0.00 | 0.00 | 86 | 1018.6 |
| 20260510005347 | 37 | 349 | 0.0 | 0.9 | 0.00 | 0.00 | 0.00 | 86 | 1018.6 |
| 20260510004447 | 38 | 234 | 0.0 | 1.7 | 0.00 | 0.00 | 0.00 | 86 | 1018.6 |
| 20260510003548 | 38 | 225 | 0.0 | 1.7 | 0.00 | 0.00 | 0.00 | 85 | 1018.6 |
| 20260510001747 | 38 | 225 | 0.0 | 0.9 | 0.00 | 0.00 | 0.00 | 84 | 1018.6 |
| 20260510000847 | 38 | 225 | 0.0 | 0.9 | 0.00 | 0.00 | 0.00 | 84 | 1018.8 |
| 20260509235948 | 38 | 225 | 0.0 | 0.9 | 0.00 | 0.00 | 0.00 | 83 | 1018.9 |
| 20260509235047 | 39 | 221 | 0.0 | 1.7 | 0.00 | 0.00 | 0.00 | 83 | 1019.0 |